sat.trackr.live / text

‹ back to catalog

STARLINK-6107

NORAD 56117 · 2023-046AA

PAYLOAD ACTIVE UNKNOWN

§ Identity

Operator
Country
US
Launch date
2023-03-29
Launch site
AFETR
Launch vehicle
Mass (kg)
RCS (m²)

Purposes: comms

External: N2YO · Heavens-Above · Gunter

§ Orbital elements

Epoch: 2026-05-25T03:48:39.280608Z

Period
94.27 min
Inclination
43.0032°
Eccentricity
0.0001198
Mean motion
15.27577999 rev/d
Perigee alt
482.2 km
Apogee alt
483.9 km
Semi-major
6,861.2 km
B*
1.2477e-5
RAAN
75.2631°
Arg perigee
266.5751°
Mean anomaly
93.4964°
Rev number
17,389

§ Raw data

STARLINK-61071 56117U 23046AA  26145.15878797  .00000081  00000+0  12477-4 0  99982 56117  43.0032  75.2631 0001198 266.5751  93.4964 15.27577999173893

JSON: /api/v1/satellites/56117 · /tle

For live sub-satellite position, see the globe view (requires WebGL).

§ Visibility from observer

Set your observer location to see the next 7 days of passes ≥ 10°. The values pass through the URL so the page stays shareable.

No JS? Fill the form by hand. The geolocation button needs JavaScript.